owner,sensor,date,latitude,longitude,vertical_datum,sea_water_speed,direction_of_sea_water_velocity,upward_sea_water_velocity,qcFlag
Anadarko,ioos:station:wmo:42377:1,2024-04-01T00:14:00Z,27.2925,-90.9681,21.3,33.7,305.6,-9999.0,'111111111,111111111,999999991'
Anadarko,ioos:station:wmo:42377:1,2024-04-01T00:34:00Z,27.2925,-90.9681,21.3,33.9,305.9,-9999.0,'111111111,111111111,999999991'
Anadarko,ioos:station:wmo:42377:1,2024-04-01T00:54:00Z,27.2925,-90.9681,21.3,38.0,304.8,-9999.0,'111111111,111111111,999999991'
Anadarko,ioos:station:wmo:42377:1,2024-04-01T01:14:00Z,27.2925,-90.9681,21.3,40.8,305.1,-9999.0,'111111111,111111111,999999991'
Anadarko,ioos:station:wmo:42377:1,2024-04-01T01:34:00Z,27.2925,-90.9681,21.3,40.2,305.9,-9999.0,'111111111,111111111,999999991'
Anadarko,ioos:station:wmo:42377:1,2024-04-01T01:54:00Z,27.2925,-90.9681,21.3,40.4,307.4,-9999.0,'111111111,111111111,999999991'
Anadarko,ioos:station:wmo:42377:1,2024-04-01T02:14:00Z,27.2925,-90.9681,21.3,39.5,308.5,-9999.0,'111111111,111111111,999999991'
Anadarko,ioos:station:wmo:42377:1,2024-04-01T02:34:00Z,27.2925,-90.9681,21.3,38.0,310.2,-9999.0,'111111111,111111111,999999991'
Anadarko,ioos:station:wmo:42377:1,2024-04-01T02:54:00Z,27.2925,-90.9681,21.3,39.7,310.0,-9999.0,'111111111,111111111,999999991'
Anadarko,ioos:station:wmo:42377:1,2024-04-01T03:14:00Z,27.2925,-90.9681,21.3,39.2,314.4,-9999.0,'111111111,111111111,999999991'
Anadarko,ioos:station:wmo:42377:1,2024-04-01T03:34:00Z,27.2925,-90.9681,21.3,41.0,316.2,-9999.0,'111111111,111111111,999999991'
Anadarko,ioos:station:wmo:42377:1,2024-04-01T03:54:00Z,27.2925,-90.9681,21.3,43.2,319.2,-9999.0,'111111111,111111111,999999991'
Anadarko,ioos:station:wmo:42377:1,2024-04-01T04:14:00Z,27.2925,-90.9681,21.3,45.9,320.9,-9999.0,'111111111,111111111,999999991'
Anadarko,ioos:station:wmo:42377:1,2024-04-01T04:34:00Z,27.2925,-90.9681,21.3,47.7,322.7,-9999.0,'111111111,111111111,999999991'
Anadarko,ioos:station:wmo:42377:1,2024-04-01T04:54:00Z,27.2925,-90.9681,21.3,46.7,324.1,-9999.0,'111111111,111111111,999999991'
Anadarko,ioos:station:wmo:42377:1,2024-04-01T05:14:00Z,27.2925,-90.9681,21.3,49.9,327.3,-9999.0,'111111111,111111111,999999991'
Anadarko,ioos:station:wmo:42377:1,2024-04-01T05:34:00Z,27.2925,-90.9681,21.3,50.6,329.0,-9999.0,'111111111,111111111,999999991'
Anadarko,ioos:station:wmo:42377:1,2024-04-01T05:54:00Z,27.2925,-90.9681,21.3,51.8,326.6,-9999.0,'111111111,111111111,999999991'
Anadarko,ioos:station:wmo:42377:1,2024-04-01T06:14:00Z,27.2925,-90.9681,21.3,53.1,326.4,-9999.0,'111111111,111111111,999999991'
Anadarko,ioos:station:wmo:42377:1,2024-04-01T06:34:00Z,27.2925,-90.9681,21.3,52.5,325.0,-9999.0,'111111111,111111111,999999991'
Anadarko,ioos:station:wmo:42377:1,2024-04-01T06:54:00Z,27.2925,-90.9681,21.3,50.3,322.3,-9999.0,'111111111,111111111,999999991'
Anadarko,ioos:station:wmo:42377:1,2024-04-01T07:14:00Z,27.2925,-90.9681,21.3,47.8,320.9,-9999.0,'111111111,111111111,999999991'
Anadarko,ioos:station:wmo:42377:1,2024-04-01T07:34:00Z,27.2925,-90.9681,21.3,45.4,319.5,-9999.0,'111111111,111111111,999999991'
Anadarko,ioos:station:wmo:42377:1,2024-04-01T07:54:00Z,27.2925,-90.9681,21.3,42.7,315.9,-9999.0,'111111111,111111111,999999991'
Anadarko,ioos:station:wmo:42377:1,2024-04-01T08:14:00Z,27.2925,-90.9681,21.3,42.8,313.8,-9999.0,'111111111,111111111,999999991'
Anadarko,ioos:station:wmo:42377:1,2024-04-01T08:34:00Z,27.2925,-90.9681,21.3,41.9,314.8,-9999.0,'111111111,111111111,999999991'
Anadarko,ioos:station:wmo:42377:1,2024-04-01T08:54:00Z,27.2925,-90.9681,21.3,41.7,312.8,-9999.0,'111111111,111111111,999999991'
Anadarko,ioos:station:wmo:42377:1,2024-04-01T09:14:00Z,27.2925,-90.9681,21.3,40.2,315.3,-9999.0,'111111111,111111111,999999991'
Anadarko,ioos:station:wmo:42377:1,2024-04-01T09:34:00Z,27.2925,-90.9681,21.3,38.0,314.7,-9999.0,'111111111,111111111,999999991'
Anadarko,ioos:station:wmo:42377:1,2024-04-01T09:54:00Z,27.2925,-90.9681,21.3,40.0,319.9,-9999.0,'111111111,111111111,999999991'
Anadarko,ioos:station:wmo:42377:1,2024-04-01T10:14:00Z,27.2925,-90.9681,21.3,39.2,325.0,-9999.0,'111111111,111111111,999999991'
Anadarko,ioos:station:wmo:42377:1,2024-04-01T10:34:00Z,27.2925,-90.9681,21.3,37.9,322.8,-9999.0,'111111111,111111111,999999991'
Anadarko,ioos:station:wmo:42377:1,2024-04-01T10:54:00Z,27.2925,-90.9681,21.3,38.5,325.5,-9999.0,'111111111,111111111,999999991'
Anadarko,ioos:station:wmo:42377:1,2024-04-01T11:14:00Z,27.2925,-90.9681,21.3,35.8,325.7,-9999.0,'111111111,111111111,999999991'
Anadarko,ioos:station:wmo:42377:1,2024-04-01T11:34:00Z,27.2925,-90.9681,21.3,35.6,321.3,-9999.0,'111111111,111111111,999999991'
Anadarko,ioos:station:wmo:42377:1,2024-04-01T11:54:00Z,27.2925,-90.9681,21.3,22.2,324.7,-9999.0,'111111111,111111111,999999991'
Anadarko,ioos:station:wmo:42377:1,2024-04-01T12:14:00Z,27.2925,-90.9681,21.3,28.0,331.4,-9999.0,'111111111,111111111,999999991'
Anadarko,ioos:station:wmo:42377:1,2024-04-01T12:34:00Z,27.2925,-90.9681,21.3,29.3,317.2,-9999.0,'111111111,111111111,999999991'
Anadarko,ioos:station:wmo:42377:1,2024-04-01T12:54:00Z,27.2925,-90.9681,21.3,28.2,330.7,-9999.0,'111111111,111111111,999999991'
Anadarko,ioos:station:wmo:42377:1,2024-04-01T13:14:00Z,27.2925,-90.9681,21.3,25.8,333.2,-9999.0,'111111111,111111111,999999991'
Anadarko,ioos:station:wmo:42377:1,2024-04-01T13:34:00Z,27.2925,-90.9681,21.3,22.4,329.7,-9999.0,'111111111,111111111,999999991'
Anadarko,ioos:station:wmo:42377:1,2024-04-01T13:54:00Z,27.2925,-90.9681,21.3,22.2,329.7,-9999.0,'111111111,111111111,999999991'
Anadarko,ioos:station:wmo:42377:1,2024-04-01T14:14:00Z,27.2925,-90.9681,21.3,21.5,322.2,-9999.0,'111111111,111111111,999999991'
Anadarko,ioos:station:wmo:42377:1,2024-04-01T14:34:00Z,27.2925,-90.9681,21.3,18.3,332.0,-9999.0,'111111111,111111111,999999991'
Anadarko,ioos:station:wmo:42377:1,2024-04-01T14:54:00Z,27.2925,-90.9681,21.3,18.9,325.6,-9999.0,'111111111,111111111,999999991'
Anadarko,ioos:station:wmo:42377:1,2024-04-01T15:14:00Z,27.2925,-90.9681,21.3,16.3,341.8,-9999.0,'111111111,111111111,999999991'
Anadarko,ioos:station:wmo:42377:1,2024-04-01T15:34:00Z,27.2925,-90.9681,21.3,16.3,324.0,-9999.0,'111111111,111111111,999999991'
Anadarko,ioos:station:wmo:42377:1,2024-04-01T15:54:00Z,27.2925,-90.9681,21.3,15.2,355.5,-9999.0,'111111111,111111111,999999991'
Anadarko,ioos:station:wmo:42377:1,2024-04-01T16:14:00Z,27.2925,-90.9681,21.3,15.7,349.3,-9999.0,'111111111,111111111,999999991'
Anadarko,ioos:station:wmo:42377:1,2024-04-01T16:34:00Z,27.2925,-90.9681,21.3,13.5,353.2,-9999.0,'111111111,111111111,999999991'
Anadarko,ioos:station:wmo:42377:1,2024-04-01T16:54:00Z,27.2925,-90.9681,21.3,11.7,0.0,-9999.0,'111111111,111441111,999999991'
Anadarko,ioos:station:wmo:42377:1,2024-04-01T17:14:00Z,27.2925,-90.9681,21.3,9.3,350.1,-9999.0,'111111111,111111111,999999991'
Anadarko,ioos:station:wmo:42377:1,2024-04-01T17:34:00Z,27.2925,-90.9681,21.3,7.4,325.5,-9999.0,'111111111,111111111,999999991'
Anadarko,ioos:station:wmo:42377:1,2024-04-01T17:54:00Z,27.2925,-90.9681,21.3,6.5,356.5,-9999.0,'111111111,111111111,999999991'
Anadarko,ioos:station:wmo:42377:1,2024-04-01T18:14:00Z,27.2925,-90.9681,21.3,8.3,27.2,-9999.0,'111111111,111111111,999999991'
Anadarko,ioos:station:wmo:42377:1,2024-04-01T18:34:00Z,27.2925,-90.9681,21.3,9.0,23.7,-9999.0,'111111111,111111111,999999991'
Anadarko,ioos:station:wmo:42377:1,2024-04-01T18:54:00Z,27.2925,-90.9681,21.3,4.8,22.2,-9999.0,'111111111,111111111,999999991'
Anadarko,ioos:station:wmo:42377:1,2024-04-01T19:14:00Z,27.2925,-90.9681,21.3,4.4,50.5,-9999.0,'111111111,111111111,999999991'
Anadarko,ioos:station:wmo:42377:1,2024-04-01T19:34:00Z,27.2925,-90.9681,21.3,4.2,92.7,-9999.0,'111111111,111111111,999999991'
Anadarko,ioos:station:wmo:42377:1,2024-04-01T19:54:00Z,27.2925,-90.9681,21.3,2.3,70.0,-9999.0,'111331111,111111111,999999991'
Anadarko,ioos:station:wmo:42377:1,2024-04-01T20:14:00Z,27.2925,-90.9681,21.3,5.6,102.3,-9999.0,'111111111,111111111,999999991'
Anadarko,ioos:station:wmo:42377:1,2024-04-01T20:34:00Z,27.2925,-90.9681,21.3,3.8,180.0,-9999.0,'111111111,111111111,999999991'
Anadarko,ioos:station:wmo:42377:1,2024-04-01T20:54:00Z,27.2925,-90.9681,21.3,3.7,102.5,-9999.0,'111111111,111111111,999999991'
Anadarko,ioos:station:wmo:42377:1,2024-04-01T21:14:00Z,27.2925,-90.9681,21.3,2.6,20.6,-9999.0,'111331111,111111111,999999991'
Anadarko,ioos:station:wmo:42377:1,2024-04-01T21:34:00Z,27.2925,-90.9681,21.3,4.7,64.5,-9999.0,'111111111,111111111,999999991'
Anadarko,ioos:station:wmo:42377:1,2024-04-01T21:54:00Z,27.2925,-90.9681,21.3,5.8,69.7,-9999.0,'111111111,111111111,999999991'
Anadarko,ioos:station:wmo:42377:1,2024-04-01T22:14:00Z,27.2925,-90.9681,21.3,3.2,64.2,-9999.0,'111111111,111111111,999999991'
Anadarko,ioos:station:wmo:42377:1,2024-04-01T22:34:00Z,27.2925,-90.9681,21.3,5.1,256.5,-9999.0,'111111111,111111111,999999991'
Anadarko,ioos:station:wmo:42377:1,2024-04-01T22:54:00Z,27.2925,-90.9681,21.3,6.5,124.4,-9999.0,'111111111,111111111,999999991'
Anadarko,ioos:station:wmo:42377:1,2024-04-01T23:14:00Z,27.2925,-90.9681,21.3,4.7,204.9,-9999.0,'111111111,111111111,999999991'
Anadarko,ioos:station:wmo:42377:1,2024-04-01T23:34:00Z,27.2925,-90.9681,21.3,9.0,238.6,-9999.0,'111111111,111111111,999999991'
Anadarko,ioos:station:wmo:42377:1,2024-04-01T23:54:00Z,27.2925,-90.9681,21.3,6.7,221.3,-9999.0,'111111111,111111111,999999991'
Anadarko,ioos:station:wmo:42377:1,2024-04-02T00:14:00Z,27.2925,-90.9681,21.3,9.9,218.0,-9999.0,'111111111,111111111,999999991'
Anadarko,ioos:station:wmo:42377:1,2024-04-02T00:34:00Z,27.2925,-90.9681,21.3,11.3,236.2,-9999.0,'111111111,111111111,999999991'
Anadarko,ioos:station:wmo:42377:1,2024-04-02T00:54:00Z,27.2925,-90.9681,21.3,10.5,241.0,-9999.0,'111111111,111111111,999999991'
Anadarko,ioos:station:wmo:42377:1,2024-04-02T01:14:00Z,27.2925,-90.9681,21.3,14.7,231.6,-9999.0,'111111111,111111111,999999991'
Anadarko,ioos:station:wmo:42377:1,2024-04-02T01:34:00Z,27.2925,-90.9681,21.3,17.0,238.5,-9999.0,'111111111,111111111,999999991'
Anadarko,ioos:station:wmo:42377:1,2024-04-02T01:54:00Z,27.2925,-90.9681,21.3,19.3,248.4,-9999.0,'111111111,111111111,999999991'
Anadarko,ioos:station:wmo:42377:1,2024-04-02T02:14:00Z,27.2925,-90.9681,21.3,20.5,250.6,-9999.0,'111111111,111111111,999999991'
Anadarko,ioos:station:wmo:42377:1,2024-04-02T02:34:00Z,27.2925,-90.9681,21.3,22.4,260.5,-9999.0,'111111111,111111111,999999991'
Anadarko,ioos:station:wmo:42377:1,2024-04-02T02:54:00Z,27.2925,-90.9681,21.3,25.3,266.8,-9999.0,'111111111,111111111,999999991'
Anadarko,ioos:station:wmo:42377:1,2024-04-02T03:14:00Z,27.2925,-90.9681,21.3,27.0,271.1,-9999.0,'111111111,111111111,999999991'
Anadarko,ioos:station:wmo:42377:1,2024-04-02T03:34:00Z,27.2925,-90.9681,21.3,27.9,277.2,-9999.0,'111111111,111111111,999999991'
Anadarko,ioos:station:wmo:42377:1,2024-04-02T03:54:00Z,27.2925,-90.9681,21.3,27.3,281.6,-9999.0,'111111111,111111111,999999991'
Anadarko,ioos:station:wmo:42377:1,2024-04-02T04:14:00Z,27.2925,-90.9681,21.3,28.9,281.8,-9999.0,'111111111,111111111,999999991'
Anadarko,ioos:station:wmo:42377:1,2024-04-02T04:34:00Z,27.2925,-90.9681,21.3,31.0,281.3,-9999.0,'111111111,111111111,999999991'
Anadarko,ioos:station:wmo:42377:1,2024-04-02T04:54:00Z,27.2925,-90.9681,21.3,30.8,282.2,-9999.0,'111111111,111111111,999999991'
Anadarko,ioos:station:wmo:42377:1,2024-04-02T05:14:00Z,27.2925,-90.9681,21.3,29.8,286.2,-9999.0,'111111111,111111111,999999991'
Anadarko,ioos:station:wmo:42377:1,2024-04-02T05:34:00Z,27.2925,-90.9681,21.3,31.4,287.8,-9999.0,'111111111,111111111,999999991'
Anadarko,ioos:station:wmo:42377:1,2024-04-02T05:54:00Z,27.2925,-90.9681,21.3,34.5,290.5,-9999.0,'111111111,111111111,999999991'
Anadarko,ioos:station:wmo:42377:1,2024-04-02T06:14:00Z,27.2925,-90.9681,21.3,32.9,289.5,-9999.0,'111111111,111111111,999999991'
Anadarko,ioos:station:wmo:42377:1,2024-04-02T06:34:00Z,27.2925,-90.9681,21.3,32.6,286.8,-9999.0,'111111111,111111111,999999991'
Anadarko,ioos:station:wmo:42377:1,2024-04-02T06:54:00Z,27.2925,-90.9681,21.3,32.6,288.8,-9999.0,'111111111,111111111,999999991'
Anadarko,ioos:station:wmo:42377:1,2024-04-02T07:14:00Z,27.2925,-90.9681,21.3,30.1,285.0,-9999.0,'111111111,111111111,999999991'
Anadarko,ioos:station:wmo:42377:1,2024-04-02T07:34:00Z,27.2925,-90.9681,21.3,28.7,288.1,-9999.0,'111111111,111111111,999999991'
Anadarko,ioos:station:wmo:42377:1,2024-04-02T07:54:00Z,27.2925,-90.9681,21.3,29.2,291.0,-9999.0,'111111111,111111111,999999991'
Anadarko,ioos:station:wmo:42377:1,2024-04-02T08:14:00Z,27.2925,-90.9681,21.3,30.6,291.0,-9999.0,'111111111,111111111,999999991'
Anadarko,ioos:station:wmo:42377:1,2024-04-02T08:34:00Z,27.2925,-90.9681,21.3,29.5,295.3,-9999.0,'111111111,111111111,999999991'
Anadarko,ioos:station:wmo:42377:1,2024-04-02T08:54:00Z,27.2925,-90.9681,21.3,30.9,298.4,-9999.0,'111111111,111111111,999999991'
Anadarko,ioos:station:wmo:42377:1,2024-04-02T09:14:00Z,27.2925,-90.9681,21.3,31.3,302.1,-9999.0,'111111111,111111111,999999991'
Anadarko,ioos:station:wmo:42377:1,2024-04-02T09:34:00Z,27.2925,-90.9681,21.3,29.3,303.6,-9999.0,'111111111,111111111,999999991'
Anadarko,ioos:station:wmo:42377:1,2024-04-02T09:54:00Z,27.2925,-90.9681,21.3,34.5,308.4,-9999.0,'111111111,111111111,999999991'
Anadarko,ioos:station:wmo:42377:1,2024-04-02T10:14:00Z,27.2925,-90.9681,21.3,40.3,309.8,-9999.0,'111111111,111111111,999999991'
Anadarko,ioos:station:wmo:42377:1,2024-04-02T10:34:00Z,27.2925,-90.9681,21.3,40.5,307.8,-9999.0,'111111111,111111111,999999991'
Anadarko,ioos:station:wmo:42377:1,2024-04-02T10:54:00Z,27.2925,-90.9681,21.3,39.4,314.5,-9999.0,'111111111,111111111,999999991'
Anadarko,ioos:station:wmo:42377:1,2024-04-02T11:14:00Z,27.2925,-90.9681,21.3,38.8,316.1,-9999.0,'111111111,111111111,999999991'
Anadarko,ioos:station:wmo:42377:1,2024-04-02T11:34:00Z,27.2925,-90.9681,21.3,36.4,316.2,-9999.0,'111111111,111111111,999999991'
Anadarko,ioos:station:wmo:42377:1,2024-04-02T11:54:00Z,27.2925,-90.9681,21.3,30.4,314.7,-9999.0,'111111111,111111111,999999991'
Anadarko,ioos:station:wmo:42377:1,2024-04-02T12:14:00Z,27.2925,-90.9681,21.3,33.4,326.1,-9999.0,'111111111,111111111,999999991'
Anadarko,ioos:station:wmo:42377:1,2024-04-02T12:34:00Z,27.2925,-90.9681,21.3,34.2,325.2,-9999.0,'111111111,111111111,999999991'
Anadarko,ioos:station:wmo:42377:1,2024-04-02T12:54:00Z,27.2925,-90.9681,21.3,30.8,327.3,-9999.0,'111111111,111111111,999999991'
Anadarko,ioos:station:wmo:42377:1,2024-04-02T13:14:00Z,27.2925,-90.9681,21.3,31.1,329.1,-9999.0,'111111111,111111111,999999991'
Anadarko,ioos:station:wmo:42377:1,2024-04-02T13:34:00Z,27.2925,-90.9681,21.3,32.7,327.0,-9999.0,'111111111,111111111,999999991'
Anadarko,ioos:station:wmo:42377:1,2024-04-02T13:54:00Z,27.2925,-90.9681,21.3,32.2,330.3,-9999.0,'111111111,111111111,999999991'
Anadarko,ioos:station:wmo:42377:1,2024-04-02T14:14:00Z,27.2925,-90.9681,21.3,33.5,327.9,-9999.0,'111111111,111111111,999999991'
Anadarko,ioos:station:wmo:42377:1,2024-04-02T14:34:00Z,27.2925,-90.9681,21.3,30.5,332.8,-9999.0,'111111111,111111111,999999991'
Anadarko,ioos:station:wmo:42377:1,2024-04-02T14:54:00Z,27.2925,-90.9681,21.3,30.2,337.0,-9999.0,'111111111,111111111,999999991'
Anadarko,ioos:station:wmo:42377:1,2024-04-02T15:14:00Z,27.2925,-90.9681,21.3,28.7,334.6,-9999.0,'111111111,111111111,999999991'
Anadarko,ioos:station:wmo:42377:1,2024-04-02T15:34:00Z,27.2925,-90.9681,21.3,28.8,341.4,-9999.0,'111111111,111111111,999999991'
Anadarko,ioos:station:wmo:42377:1,2024-04-02T15:54:00Z,27.2925,-90.9681,21.3,28.2,344.4,-9999.0,'111111111,111111111,999999991'
Anadarko,ioos:station:wmo:42377:1,2024-04-02T16:14:00Z,27.2925,-90.9681,21.3,25.6,344.1,-9999.0,'111111111,111111111,999999991'
Anadarko,ioos:station:wmo:42377:1,2024-04-02T16:34:00Z,27.2925,-90.9681,21.3,24.0,350.9,-9999.0,'111111111,111111111,999999991'
Anadarko,ioos:station:wmo:42377:1,2024-04-02T16:54:00Z,27.2925,-90.9681,21.3,22.2,352.5,-9999.0,'111111111,111111111,999999991'
Anadarko,ioos:station:wmo:42377:1,2024-04-02T17:14:00Z,27.2925,-90.9681,21.3,20.6,354.4,-9999.0,'111111111,111111111,999999991'
Anadarko,ioos:station:wmo:42377:1,2024-04-02T17:34:00Z,27.2925,-90.9681,21.3,20.2,0.3,-9999.0,'111111111,111111111,999999991'
Anadarko,ioos:station:wmo:42377:1,2024-04-02T17:54:00Z,27.2925,-90.9681,21.3,18.3,5.3,-9999.0,'111111111,111111111,999999991'
Anadarko,ioos:station:wmo:42377:1,2024-04-02T18:14:00Z,27.2925,-90.9681,21.3,14.4,3.6,-9999.0,'111111111,111111111,999999991'
Anadarko,ioos:station:wmo:42377:1,2024-04-02T18:34:00Z,27.2925,-90.9681,21.3,13.9,11.2,-9999.0,'111111111,111111111,999999991'
Anadarko,ioos:station:wmo:42377:1,2024-04-02T18:54:00Z,27.2925,-90.9681,21.3,13.6,19.8,-9999.0,'111111111,111111111,999999991'
Anadarko,ioos:station:wmo:42377:1,2024-04-02T19:14:00Z,27.2925,-90.9681,21.3,16.1,26.1,-9999.0,'111111111,111111111,999999991'
Anadarko,ioos:station:wmo:42377:1,2024-04-02T19:34:00Z,27.2925,-90.9681,21.3,12.3,29.7,-9999.0,'111111111,111111111,999999991'
Anadarko,ioos:station:wmo:42377:1,2024-04-02T19:54:00Z,27.2925,-90.9681,21.3,10.2,36.6,-9999.0,'111111111,111111111,999999991'
Anadarko,ioos:station:wmo:42377:1,2024-04-02T20:14:00Z,27.2925,-90.9681,21.3,7.9,44.0,-9999.0,'111111111,111111111,999999991'
Anadarko,ioos:station:wmo:42377:1,2024-04-02T20:34:00Z,27.2925,-90.9681,21.3,7.4,43.4,-9999.0,'111111111,111111111,999999991'
Anadarko,ioos:station:wmo:42377:1,2024-04-02T20:54:00Z,27.2925,-90.9681,21.3,3.7,55.9,-9999.0,'111111111,111111111,999999991'
Anadarko,ioos:station:wmo:42377:1,2024-04-02T21:14:00Z,27.2925,-90.9681,21.3,5.3,51.8,-9999.0,'111111111,111111111,999999991'
Anadarko,ioos:station:wmo:42377:1,2024-04-02T21:34:00Z,27.2925,-90.9681,21.3,2.9,52.0,-9999.0,'111331111,111111111,999999991'
Anadarko,ioos:station:wmo:42377:1,2024-04-02T21:54:00Z,27.2925,-90.9681,21.3,2.4,73.1,-9999.0,'111331111,111111111,999999991'
Anadarko,ioos:station:wmo:42377:1,2024-04-02T22:14:00Z,27.2925,-90.9681,21.3,2.9,126.5,-9999.0,'111331111,111111111,999999991'
Anadarko,ioos:station:wmo:42377:1,2024-04-02T22:34:00Z,27.2925,-90.9681,21.3,4.7,153.4,-9999.0,'111111111,111111111,999999991'
Anadarko,ioos:station:wmo:42377:1,2024-04-02T22:54:00Z,27.2925,-90.9681,21.3,4.4,174.8,-9999.0,'111111111,111111111,999999991'
Anadarko,ioos:station:wmo:42377:1,2024-04-02T23:14:00Z,27.2925,-90.9681,21.3,5.4,176.8,-9999.0,'111111111,111111111,999999991'
Anadarko,ioos:station:wmo:42377:1,2024-04-02T23:34:00Z,27.2925,-90.9681,21.3,9.1,162.2,-9999.0,'111111111,111111111,999999991'
Anadarko,ioos:station:wmo:42377:1,2024-04-02T23:54:00Z,27.2925,-90.9681,21.3,10.7,155.8,-9999.0,'111111111,111111111,999999991'
Anadarko,ioos:station:wmo:42377:1,2024-04-03T00:14:00Z,27.2925,-90.9681,21.3,14.5,194.4,-9999.0,'111111111,111111111,999999991'
Anadarko,ioos:station:wmo:42377:1,2024-04-03T00:34:00Z,27.2925,-90.9681,21.3,14.3,196.7,-9999.0,'111111111,111111111,999999991'
Anadarko,ioos:station:wmo:42377:1,2024-04-03T00:54:00Z,27.2925,-90.9681,21.3,12.5,164.2,-9999.0,'111111111,111111111,999999991'
Anadarko,ioos:station:wmo:42377:1,2024-04-03T01:14:00Z,27.2925,-90.9681,21.3,12.9,157.6,-9999.0,'111111111,111111111,999999991'
Anadarko,ioos:station:wmo:42377:1,2024-04-03T01:34:00Z,27.2925,-90.9681,21.3,13.8,154.7,-9999.0,'111111111,111111111,999999991'
Anadarko,ioos:station:wmo:42377:1,2024-04-03T01:54:00Z,27.2925,-90.9681,21.3,16.2,168.6,-9999.0,'111111111,111111111,999999991'
Anadarko,ioos:station:wmo:42377:1,2024-04-03T02:14:00Z,27.2925,-90.9681,21.3,19.9,187.8,-9999.0,'111111111,111111111,999999991'
Anadarko,ioos:station:wmo:42377:1,2024-04-03T02:34:00Z,27.2925,-90.9681,21.3,22.1,196.6,-9999.0,'111111111,111111111,999999991'
Anadarko,ioos:station:wmo:42377:1,2024-04-03T02:54:00Z,27.2925,-90.9681,21.3,25.3,201.8,-9999.0,'111111111,111111111,999999991'
Anadarko,ioos:station:wmo:42377:1,2024-04-03T03:14:00Z,27.2925,-90.9681,21.3,28.0,209.0,-9999.0,'111111111,111111111,999999991'
Anadarko,ioos:station:wmo:42377:1,2024-04-03T03:34:00Z,27.2925,-90.9681,21.3,29.3,211.9,-9999.0,'111111111,111111111,999999991'
Anadarko,ioos:station:wmo:42377:1,2024-04-03T03:54:00Z,27.2925,-90.9681,21.3,31.7,216.5,-9999.0,'111111111,111111111,999999991'
Anadarko,ioos:station:wmo:42377:1,2024-04-03T04:14:00Z,27.2925,-90.9681,21.3,33.0,219.2,-9999.0,'111111111,111111111,999999991'
Anadarko,ioos:station:wmo:42377:1,2024-04-03T04:34:00Z,27.2925,-90.9681,21.3,34.4,220.2,-9999.0,'111111111,111111111,999999991'
Anadarko,ioos:station:wmo:42377:1,2024-04-03T04:54:00Z,27.2925,-90.9681,21.3,35.8,221.9,-9999.0,'111111111,111111111,999999991'
Anadarko,ioos:station:wmo:42377:1,2024-04-03T05:14:00Z,27.2925,-90.9681,21.3,35.6,225.7,-9999.0,'111111111,111111111,999999991'
Anadarko,ioos:station:wmo:42377:1,2024-04-03T05:34:00Z,27.2925,-90.9681,21.3,36.7,229.1,-9999.0,'111111111,111111111,999999991'
Anadarko,ioos:station:wmo:42377:1,2024-04-03T05:54:00Z,27.2925,-90.9681,21.3,37.7,231.9,-9999.0,'111111111,111111111,999999991'
Anadarko,ioos:station:wmo:42377:1,2024-04-03T06:14:00Z,27.2925,-90.9681,21.3,39.0,233.5,-9999.0,'111111111,111111111,999999991'
Anadarko,ioos:station:wmo:42377:1,2024-04-03T06:34:00Z,27.2925,-90.9681,21.3,41.0,236.0,-9999.0,'111111111,111111111,999999991'
Anadarko,ioos:station:wmo:42377:1,2024-04-03T06:54:00Z,27.2925,-90.9681,21.3,40.9,237.5,-9999.0,'111111111,111111111,999999991'
Anadarko,ioos:station:wmo:42377:1,2024-04-03T07:14:00Z,27.2925,-90.9681,21.3,42.4,238.1,-9999.0,'111111111,111111111,999999991'
Anadarko,ioos:station:wmo:42377:1,2024-04-03T07:34:00Z,27.2925,-90.9681,21.3,44.0,240.2,-9999.0,'111111111,111111111,999999991'
Anadarko,ioos:station:wmo:42377:1,2024-04-03T07:54:00Z,27.2925,-90.9681,21.3,51.4,242.4,-9999.0,'111111111,111111111,999999991'
Anadarko,ioos:station:wmo:42377:1,2024-04-03T08:14:00Z,27.2925,-90.9681,21.3,50.9,243.6,-9999.0,'111111111,111111111,999999991'
Anadarko,ioos:station:wmo:42377:1,2024-04-03T08:34:00Z,27.2925,-90.9681,21.3,51.9,245.0,-9999.0,'111111111,111111111,999999991'
Anadarko,ioos:station:wmo:42377:1,2024-04-03T08:54:00Z,27.2925,-90.9681,21.3,54.5,248.9,-9999.0,'111111111,111111111,999999991'
Anadarko,ioos:station:wmo:42377:1,2024-04-03T09:14:00Z,27.2925,-90.9681,21.3,51.0,251.1,-9999.0,'111111111,111111111,999999991'
Anadarko,ioos:station:wmo:42377:1,2024-04-03T09:34:00Z,27.2925,-90.9681,21.3,50.9,252.3,-9999.0,'111111111,111111111,999999991'
Anadarko,ioos:station:wmo:42377:1,2024-04-03T09:54:00Z,27.2925,-90.9681,21.3,48.7,254.3,-9999.0,'111111111,111111111,999999991'
Anadarko,ioos:station:wmo:42377:1,2024-04-03T10:14:00Z,27.2925,-90.9681,21.3,51.3,255.1,-9999.0,'111111111,111111111,999999991'
Anadarko,ioos:station:wmo:42377:1,2024-04-03T10:34:00Z,27.2925,-90.9681,21.3,49.7,255.8,-9999.0,'111111111,111111111,999999991'
Anadarko,ioos:station:wmo:42377:1,2024-04-03T10:54:00Z,27.2925,-90.9681,21.3,49.1,257.2,-9999.0,'111111111,111111111,999999991'
Anadarko,ioos:station:wmo:42377:1,2024-04-03T11:14:00Z,27.2925,-90.9681,21.3,50.1,259.2,-9999.0,'111111111,111111111,999999991'
Anadarko,ioos:station:wmo:42377:1,2024-04-03T11:34:00Z,27.2925,-90.9681,21.3,50.1,259.5,-9999.0,'111111111,111111111,999999991'
Anadarko,ioos:station:wmo:42377:1,2024-04-03T11:54:00Z,27.2925,-90.9681,21.3,42.7,259.2,-9999.0,'111111111,111111111,999999991'
Anadarko,ioos:station:wmo:42377:1,2024-04-03T12:14:00Z,27.2925,-90.9681,21.3,37.9,257.7,-9999.0,'111111111,111111111,999999991'
Anadarko,ioos:station:wmo:42377:1,2024-04-03T12:34:00Z,27.2925,-90.9681,21.3,39.6,260.8,-9999.0,'111111111,111111111,999999991'
Anadarko,ioos:station:wmo:42377:1,2024-04-03T12:54:00Z,27.2925,-90.9681,21.3,36.3,259.4,-9999.0,'111111111,111111111,999999991'
Anadarko,ioos:station:wmo:42377:1,2024-04-03T13:14:00Z,27.2925,-90.9681,21.3,34.3,260.8,-9999.0,'111111111,111111111,999999991'
Anadarko,ioos:station:wmo:42377:1,2024-04-03T13:34:00Z,27.2925,-90.9681,21.3,38.0,257.8,-9999.0,'111111111,111111111,999999991'